DW3478 Weather Reports


Display with metric or nautical units.
time (UTC)temp
F
wind
direction
speed
MPH
gust
MPH
rain 1hr
in
rain 24hr
in
rain mn
in
humidity
%
barometer
mb
20260504211304 63 267 0.0 0.0 0.00 0.00 0.00 90 1013.3
20260504210804 63 267 0.0 0.0 0.00 0.00 0.00 90 1013.4
20260504210304 63 267 0.0 0.0 0.00 0.00 0.00 90 1013.3
20260504205804 63 267 0.0 1.0 0.00 0.00 0.00 90 1013.3
20260504205304 63 267 0.0 1.0 0.00 0.00 0.00 90 1013.1
20260504204805 63 267 0.0 1.0 0.00 0.00 0.00 90 1013.0
20260504203805 63 267 0.0 0.0 0.00 0.00 0.00 90 1013.1
20260504200805 64 316 0.0 2.0 0.00 0.00 0.00 89 1012.8
20260504200304 64 273 0.0 1.0 0.00 0.00 0.00 89 1012.5
20260504194804 64 273 0.0 0.0 0.00 0.00 0.00 90 1012.4
20260504194305 64 273 0.0 0.0 0.00 0.00 0.00 89 1012.5
20260504193304 64 273 0.0 1.0 0.00 0.00 0.00 90 1012.4
20260504192805 64 273 0.0 1.0 0.00 0.00 0.00 89 1012.8
20260504190304 69 0 0.0 0.0 0.00 0.00 0.00 83 1012.4
20260504185805 69 0 0.0 0.0 0.00 0.00 0.00 83 1012.7
20260504185305 69 0 0.0 0.0 0.00 0.00 0.00 83 1012.8
20260504184804 69 0 0.0 0.0 0.00 0.00 0.00 83 1012.8
20260504182304 69 0 0.0 0.0 0.00 0.00 0.00 83 1012.9
20260504181804 69 0 0.0 0.0 0.00 0.00 0.00 83 1012.6
20260504181305 69 0 0.0 0.0 0.00 0.00 0.00 83 1012.5
20260504180805 69 0 0.0 0.0 0.00 0.00 0.00 83 1012.7
20260504180304 69 0 0.0 0.0 0.00 0.00 0.00 83 1012.5
20260504175805 69 0 0.0 0.0 0.00 0.00 0.00 83 1012.8
20260504175305 69 0 0.0 0.0 0.00 0.00 0.00 83 1012.7
20260504174304 69 0 0.0 0.0 0.00 0.00 0.00 83 1012.6
20260504173805 69 0 0.0 0.0 0.00 0.00 0.00 83 1012.6
20260504173305 69 0 0.0 0.0 0.00 0.00 0.00 83 1012.7
20260504172804 69 0 0.0 0.0 0.00 0.00 0.00 83 1012.7
20260504172305 69 0 0.0 0.0 0.00 0.00 0.00 83 1012.8
20260504160304 69 0 0.0 0.0 0.00 0.00 0.00 83 1012.9
20260504141305 70 115 5.0 10.0 0.00 0.00 0.00 86 1013.2
20260504140806 69 124 4.0 8.0 0.00 0.00 0.00 87 1013.2
20260504140305 68 121 5.0 10.0 0.00 0.00 0.00 85 1013.1
20260504130806 65 124 2.0 3.0 0.00 0.00 0.00 92 1013.1
20260504130305 64 131 2.0 5.0 0.00 0.00 0.00 91 1013.2
20260504120305 66 0 0.0 0.0 0.00 0.00 0.00 93 1013.0
20260504110305 66 0 0.0 0.0 0.00 0.00 0.00 93 1013.4
20260504100305 66 163 2.0 7.0 0.00 0.00 0.00 90 1013.1
20260504081805 62 105 2.0 3.0 0.00 0.01 0.00 96 1012.6
20260504070305 61 36 1.0 3.0 0.00 0.01 0.00 96 1012.3
20260504050305 61 51 3.0 5.0 0.00 0.01 0.00 96 1012.2
20260504045805 61 43 2.0 3.0 0.00 0.01 0.00 96 1012.2
20260504044304 61 85 0.0 0.0 0.00 0.01 0.00 96 1012.0
20260504043805 61 5 0.0 0.0 0.00 0.01 0.00 96 1012.0
20260504043305 61 5 0.0 0.0 0.00 0.01 0.00 96 1012.2
20260504041805 61 5 0.0 0.0 0.00 0.01 0.00 96 1012.1
20260504041305 61 5 0.0 0.0 0.00 0.01 0.00 96 1012.2
20260504040805 61 5 0.0 0.0 0.00 0.01 0.00 96 1012.2
20260504040305 61 5 0.0 0.0 0.00 0.01 0.00 96 1012.2
20260504035305 61 5 0.0 0.0 0.00 0.01 0.00 96 1012.2
20260504034805 61 5 0.0 0.0 0.00 0.01 0.00 96 1011.7
20260504034305 61 5 0.0 0.0 0.00 0.01 0.00 96 1012.0
20260504030305 61 5 0.0 0.0 0.00 0.01 0.00 96 1012.3
20260504025805 61 5 0.0 0.0 0.00 0.01 0.00 96 1012.0
20260504023305 60 5 1.0 2.0 0.00 0.01 0.00 96 1012.5
20260504022805 60 5 1.0 3.0 0.00 0.01 0.00 96 1012.6
20260504022305 60 313 1.0 2.0 0.00 0.01 0.00 96 1012.5
20260504021305 60 313 0.0 1.0 0.00 0.01 0.00 96 1012.2
20260504014305 61 79 2.0 3.0 0.00 0.01 0.00 96 1012.8
20260504013805 61 76 2.0 3.0 0.00 0.01 0.00 96 1012.6
20260504013304 61 37 1.0 3.0 0.00 0.01 0.00 96 1012.6
20260504012805 61 88 2.0 3.0 0.00 0.01 0.00 96 1012.8
20260504011305 61 19 0.0 0.0 0.00 0.01 0.00 96 1012.9
20260504010805 61 19 0.0 0.0 0.00 0.01 0.00 96 1012.9
20260504002304 61 19 1.0 2.0 0.00 0.01 0.00 96 1013.3
20260504001805 61 19 1.0 2.0 0.00 0.01 0.00 96 1013.4
20260503235805 61 100 0.0 0.0 0.00 0.01 0.00 96 1013.3
20260503235305 61 100 0.0 0.0 0.00 0.01 0.00 96 1013.7
20260503234804 61 100 0.0 1.0 0.00 0.01 0.00 96 1013.4
20260503234305 61 100 1.0 3.0 0.00 0.01 0.00 96 1013.5
20260503233805 61 65 1.0 2.0 0.00 0.01 0.00 96 1013.5
20260503233304 61 65 0.0 1.0 0.00 0.01 0.00 96 1013.6
20260503232804 61 65 0.0 1.0 0.00 0.01 0.00 96 1013.5
20260503232305 61 65 0.0 1.0 0.00 0.01 0.00 96 1013.4
20260503231805 61 65 1.0 2.0 0.00 0.01 0.00 96 1013.5
20260503231304 61 71 1.0 3.0 0.00 0.01 0.00 96 1013.6
20260503230805 61 89 2.0 3.0 0.00 0.01 0.00 96 1013.5
20260503222804 61 85 1.0 3.0 0.00 0.01 0.01 96 1013.6
20260503222304 61 79 2.0 3.0 0.00 0.01 0.01 96 1013.5
20260503221305 61 95 1.0 3.0 0.00 0.01 0.01 96 1013.6
20260503220805 61 95 2.0 3.0 0.00 0.01 0.01 96 1013.3
20260503220304 61 80 1.0 3.0 0.00 0.01 0.01 96 1013.7
20260503212804 60 69 1.0 2.0 0.00 0.01 0.01 96 1013.1